Theta_e
329 330 331 333 332 332 333 334 336 335 334 334 343 344 341 353 354 352 351 352 353 353 354 352 354 354 354 355 355 351 349 349 350 347 347 351 350 348 345 348 350 349 350 349
333 330 331 333 332 333 336 336 332 337 343 343 340 340 346 353 351 351 351 352 351 351 352 352 351 350 352 351 351 351 350 351 351 353 352 352 351 350 349 345 345 343 349 347
335 330 332 332 332 336 347 349 346 344 345 346 349 347 352 351 348 350 351 349 349 348 348 351 350 349 349 348 346 344 345 347 348 348 349 348 344 344 343 345 346 346 346 343
334 333 333 331 343 335 348 348 346 345 347 349 351 349 348 344 347 345 345 344 343 343 345 347 348 346 343 341 341 339 339 339 341 344 347 346 342 339 338 340 342 344 345 343
335 333 330 344 348 349 350 346 346 347 349 349 345 345 345 341 340 340 339 338 338 337 337 339 341 345 340 338 338 339 338 337 337 339 341 344 344 344 342 340 339 339 341 341
331 332 334 334 344 338 342 343 347 347 348 347 345 350 348 341 339 338 337 336 336 335 335 334 335 335 335 336 337 337 335 336 334 332 336 337 341 345 343 342 340 336 332 331
333 334 334 331 339 340 344 342 347 346 348 345 347 347 344 342 341 341 340 339 338 335 334 334 334 334 336 336 336 334 336 332 330 330 330 330 335 339 343 342 340 339 339 336
334 336 336 336 340 345 343 343 346 348 347 346 345 340 342 342 341 335 331 332 333 333 332 330 330 331 333 334 334 333 334 336 335 332 333 334 334 337 337 341 342 343 342 338
336 338 335 333 336 338 338 345 344 347 341 343 341 335 334 333 330 329 331 331 329 329 330 331 330 331 332 334 332 333 334 336 336 336 336 333 335 337 336 337 339 338 338 340
337 335 335 333 331 332 335 335 332 331 331 330 331 329 330 330 330 331 331 328 328 331 332 331 330 329 330 330 330 331 334 336 336 335 334 334 331 331 331 333 333 335 335 336
335 333 332 331 330 331 329 328 329 328 328 328 328 329 329 330 331 329 328 329 330 330 329 329 328 328 328 328 329 330 330 331 331 331 330 329 330 329 329 330 331 333 334 334
329 335 336 335 330 328 329 329 329 329 329 329 328 329 329 330 328 330 332 331 329 329 329 328 328 327 328 327 327 329 330 330 330 329 328 328 329 328 328 328 328 330 331 332
330 328 330 330 328 327 329 328 328 328 328 328 328 328 329 330 330 329 329 329 329 329 328 328 327 326 325 326 327 327 328 329 330 328 328 327 328 329 329 330 331 332 333 333
326 327 331 329 330 329 328 328 326 327 327 327 327 329 329 329 329 329 328 328 327 327 327 326 325 325 325 326 326 326 326 326 326 327 327 327 328 329 331 332 332 332 333 332
328 326 328 329 328 329 327 327 328 328 327 327 327 329 329 329 328 327 327 327 327 326 325 324 323 323 325 326 326 325 325 326 327 328 327 328 329 329 330 331 331 331 331 331
328 328 327 328 328 328 328 328 328 328 328 328 328 327 326 327 327 327 327 326 325 323 322 323 323 325 326 325 325 325 325 325 326 327 328 329 329 330 330 330 330 330 331 330
328 329 328 329 329 329 328 328 328 328 327 327 326 324 323 322 322 322 322 322 322 322 321 322 323 324 325 324 325 325 324 325 325 326 328 329 329 330 330 330 330 330 331 331
327 328 328 328 328 329 328 327 326 325 325 322 321 320 319 319 319 319 319 320 321 322 322 323 323 323 322 322 324 323 323 324 325 326 326 327 329 330 330 331 331 331 331 332
328 328 328 327 327 327 326 324 322 320 319 319 318 318 317 316 316 316 316 317 320 320 320 320 319 318 318 321 323 321 321 320 321 322 324 326 327 328 329 331 331 331 330 331
327 326 325 323 321 320 320 319 318 317 317 316 316 316 315 315 315 315 315 315 316 317 317 314 315 315 315 319 318 318 319 318 319 320 320 323 327 329 330 330 330 331 332 331
325 323 321 319 318 317 316 315 314 314 312 313 313 313 312 312 311 311 312 313 313 314 311 311 311 312 313 314 314 316 316 318 319 320 320 321 323 327 327 328 330 332 332 332
323 320 318 317 317 315 313 313 312 312 312 311 311 311 310 310 309 309 309 310 310 308 308 308 309 310 311 311 312 314 316 317 317 319 321 322 323 324 326 327 330 331 332 332
319 318 317 316 314 314 313 311 312 311 310 310 310 310 310 309 308 308 309 307 307 307 306 307 307 307 307 309 312 313 313 314 315 317 319 321 323 324 326 328 331 332 333 332
319 317 315 313 312 312 313 311 311 310 310 310 309 309 309 309 308 308 307 306 306 305 306 306 306 306 307 308 309 311 312 314 316 320 321 323 324 324 325 329 332 332 331 333
318 316 314 313 311 311 311 310 309 308 307 307 307 307 307 307 307 306 305 305 305 305 305 305 304 305 306 307 308 309 311 313 314 315 319 323 324 327 329 329 330 328 331 330
317 316 313 312 311 310 309 308 309 308 307 306 306 305 305 306 305 304 304 304 304 304 304 304 304 304 304 304 305 306 307 308 310 312 314 316 319 321 323 324 325 324 324 325
316 313 312 311 310 309 309 308 309 308 307 307 307 306 305 305 305 303 302 301 301 302 303 303 303 303 303 304 303 304 304 304 306 307 308 309 311 312 313 314 315 317 318 319
Wind_Speed
4 7 3 3 5 6 8 5 6 1 5 8 7 3 5 4 6 9 10 10 10 11 11 16 17 16 13 11 5 2 3 2 2 3 3 6 4 4 5 8 9 15 15 15
4 3 3 5 6 7 5 4 8 6 6 2 1 3 6 7 6 8 9 9 9 9 12 14 15 15 16 16 16 14 13 11 8 5 6 5 3 6 6 5 3 12 5 7
3 2 1 7 9 7 3 3 2 4 1 2 3 5 6 6 6 8 7 6 7 7 9 10 10 9 12 12 12 14 14 12 11 11 8 7 9 9 10 13 13 12 13 14
2 3 7 3 4 6 6 3 5 3 4 4 5 4 4 4 8 7 5 4 3 4 7 6 5 7 8 9 9 10 10 9 9 8 7 5 4 4 7 9 11 15 16 18
3 7 3 2 5 5 6 5 6 9 9 8 6 5 4 5 5 5 4 3 1 1 1 1 1 2 3 3 4 4 5 5 6 5 5 4 2 3 5 10 15 16 15 16
3 5 6 2 7 4 2 7 11 9 12 11 6 4 1 7 7 5 3 3 3 3 3 3 4 3 2 2 2 1 1 1 2 3 2 3 5 5 7 9 12 14 15 15
6 6 3 1 3 6 8 1 11 11 12 12 7 3 2 5 5 3 6 7 4 4 7 7 4 5 6 7 6 5 5 5 4 4 6 5 6 6 8 11 14 18 22 27
3 5 8 2 5 6 2 2 5 6 8 10 5 1 1 3 4 5 5 3 1 1 3 4 5 5 7 9 8 8 7 8 8 9 9 9 10 11 10 11 16 21 24 25
4 1 1 3 4 5 2 3 3 4 4 4 3 1 2 3 4 4 4 3 3 4 7 5 5 6 9 11 12 11 10 10 10 11 12 14 14 15 17 14 15 21 22 20
2 3 3 1 3 3 4 4 5 5 5 3 1 1 4 5 5 5 3 4 5 5 6 8 8 9 10 13 14 14 14 13 12 11 12 14 16 19 21 22 22 22 23 21
3 4 4 5 4 5 6 6 6 4 2 0 2 4 5 6 6 8 7 5 4 6 9 12 13 16 17 17 15 17 18 19 18 16 17 19 21 24 26 28 28 27 24 20
6 5 4 4 8 6 7 5 4 4 3 1 2 3 4 6 5 4 3 5 8 11 12 15 18 21 22 21 20 19 19 18 18 18 21 22 23 26 29 34 35 35 37 30
3 3 3 3 6 5 5 5 4 3 2 3 3 5 5 4 3 4 7 9 11 13 14 15 18 21 21 21 21 22 22 22 20 20 21 22 22 22 24 28 27 28 27 23
5 7 3 5 3 6 2 4 4 1 1 4 6 5 5 7 9 10 12 13 13 15 17 19 22 24 21 20 21 22 23 25 24 22 21 21 21 22 22 23 24 23 19 17
7 1 2 2 3 4 4 2 1 2 3 6 7 7 8 11 13 16 16 14 16 19 22 23 25 25 21 20 19 20 21 21 21 20 20 21 21 22 23 23 24 25 23 18
6 6 1 2 3 3 1 1 3 4 5 6 7 9 11 14 16 18 19 19 19 21 23 23 22 20 18 20 21 20 20 20 20 19 20 19 19 20 22 23 24 23 22 21
5 4 4 5 4 3 3 2 3 4 6 7 9 11 14 17 19 21 22 21 19 19 19 18 20 21 21 21 18 21 21 21 21 22 21 19 20 21 21 21 22 22 22 20
5 8 9 7 5 4 4 5 5 7 8 10 12 14 15 17 17 20 20 20 20 20 18 19 16 18 19 19 14 18 19 20 19 19 19 20 20 19 22 21 21 22 21 19
13 12 11 12 9 7 5 5 7 9 11 13 15 16 18 18 17 16 19 20 19 17 20 16 19 21 22 20 16 18 20 20 20 20 20 21 21 21 21 22 22 21 20 19
12 13 12 11 9 8 7 8 9 10 11 13 14 16 18 19 19 19 18 20 21 19 18 23 22 21 20 18 17 19 21 22 22 22 21 21 21 21 22 22 22 21 20 19
10 10 9 8 7 7 8 9 10 10 12 12 14 15 17 19 18 19 17 14 20 15 27 23 20 21 21 20 23 21 22 22 22 22 21 19 20 19 19 20 19 19 19 19
7 7 6 6 6 7 8 8 8 10 11 12 13 14 15 16 19 19 17 17 20 25 23 23 23 20 22 24 22 21 21 21 23 23 22 20 18 19 18 17 18 18 17 17
6 6 6 6 7 6 6 8 8 9 10 11 13 15 15 15 17 16 12 21 24 24 25 21 21 22 24 22 19 20 22 22 23 23 22 20 19 19 19 17 18 15 14 14
6 6 6 6 6 8 9 9 8 9 9 10 11 12 15 16 16 15 20 23 24 26 24 22 23 23 24 17 19 21 22 22 22 21 21 20 19 18 18 16 13 12 14 15
7 7 6 6 7 6 5 5 6 8 10 12 13 15 16 17 14 21 24 24 25 25 24 23 24 24 22 21 20 20 20 19 20 17 14 12 13 11 8 7 7 8 7 6
9 7 6 5 7 5 4 3 5 6 8 11 13 15 16 17 20 22 24 26 25 25 24 25 26 27 25 23 21 19 19 17 18 17 14 12 11 10 7 6 6 6 5 6
7 9 8 6 5 4 3 1 2 4 6 8 10 11 13 16 18 21 24 27 27 26 27 29 29 31 30 27 25 23 21 19 18 18 16 15 14 12 10 9 7 6 5 3
Wind_Direction
135 137 170 199 241 221 233 254 247 72 268 311 341 172 129 115 98 83 71 62 60 59 59 63 64 63 61 59 46 48 77 71 311 301 326 299 262 229 313 357 326 318 281 271
189 177 195 242 241 240 218 227 250 271 284 327 76 146 133 133 115 89 80 80 78 75 71 65 61 60 62 65 70 76 79 77 66 58 57 28 301 211 194 178 252 254 255 227
224 339 246 267 256 211 217 223 262 255 37 156 123 141 138 132 121 103 100 92 81 74 69 70 68 67 70 76 77 78 76 72 68 67 74 77 85 109 127 147 160 190 220 218
258 157 244 359 300 244 248 226 219 241 180 155 133 121 138 147 127 119 125 111 79 68 80 71 66 76 85 83 84 82 75 73 65 61 67 79 93 162 182 185 199 188 190 217
235 236 331 219 205 175 200 218 195 163 158 147 139 156 155 169 167 160 164 149 178 174 125 142 140 140 109 104 100 105 88 77 66 57 39 30 71 162 188 183 183 184 182 198
155 231 233 252 182 171 177 257 181 175 170 166 165 199 198 187 193 191 200 239 265 269 263 265 278 261 276 280 243 235 308 12 42 30 14 339 314 281 242 221 213 199 204 229
207 238 261 269 120 145 202 24 171 182 177 176 194 232 5 185 211 275 295 296 287 264 272 285 289 281 292 294 312 291 254 255 256 286 306 309 304 288 272 257 251 254 262 269
175 212 247 124 136 205 23 75 153 166 172 186 197 80 179 193 239 262 287 302 0 317 316 338 347 328 316 315 328 318 293 270 259 261 265 274 283 286 282 270 266 268 273 280
234 339 25 282 283 314 219 159 138 139 124 141 170 189 191 219 241 283 294 309 332 316 312 338 346 339 323 327 326 313 297 283 269 265 264 268 278 284 288 284 280 283 279 277
210 189 265 249 232 223 184 121 118 115 115 133 98 318 303 305 305 305 287 309 318 330 341 342 347 335 319 317 318 309 294 281 270 265 271 277 279 280 279 279 278 278 280 284
234 247 266 230 218 154 130 134 128 104 110 285 296 290 310 305 305 311 315 331 353 341 329 324 325 318 319 317 312 296 286 279 273 273 277 281 277 274 275 272 267 269 273 284
256 212 214 201 167 163 159 159 155 168 159 168 249 276 289 290 296 301 314 319 316 313 313 317 318 313 315 314 309 298 287 274 266 271 279 281 278 277 275 276 273 272 272 270
274 215 183 170 163 177 186 176 166 174 206 271 291 297 289 293 300 295 289 294 297 301 306 307 304 302 305 303 301 294 286 281 273 274 276 277 274 273 276 282 280 279 276 270
247 158 156 182 186 182 164 148 155 130 332 315 309 280 277 289 295 297 299 303 300 301 302 303 302 300 304 306 302 293 288 282 275 275 273 274 272 271 269 272 276 277 276 279
182 117 21 117 129 130 136 144 211 278 318 312 314 294 305 306 306 308 307 305 303 302 303 305 303 300 306 311 304 298 292 283 280 279 277 274 274 271 266 266 269 272 274 270
178 208 68 81 122 109 77 357 297 311 321 322 324 328 325 316 310 308 307 307 306 305 308 308 302 302 307 307 306 298 294 289 286 281 278 274 269 267 265 265 269 270 271 268
171 171 135 130 137 116 77 45 6 355 335 334 333 327 321 316 310 306 306 304 301 294 294 297 297 300 308 313 315 307 293 289 285 281 275 270 267 268 265 269 271 271 270 268
91 93 80 81 78 72 64 31 7 350 340 326 319 318 318 317 311 305 304 305 301 295 295 295 298 308 312 311 300 309 306 299 292 279 273 268 271 267 272 266 266 267 268 272
89 86 75 70 53 52 34 3 349 339 332 327 320 316 316 313 307 297 302 301 305 306 305 305 310 313 310 305 296 303 301 298 297 292 283 272 265 270 268 263 261 266 264 266
80 78 72 65 48 33 11 360 349 343 338 332 327 324 321 321 320 317 321 308 300 297 306 318 318 310 307 303 304 303 298 296 295 289 285 283 276 268 267 265 264 264 264 261
85 77 68 52 36 30 17 4 356 352 342 337 331 329 324 321 320 314 310 306 308 314 324 319 314 310 312 308 309 301 296 293 290 285 283 281 281 272 268 265 260 257 255 257
91 83 67 52 48 40 28 15 4 354 348 347 341 335 332 328 324 322 316 305 320 326 323 316 314 313 311 313 306 299 296 294 288 286 286 276 273 273 267 269 268 262 256 255
113 101 93 76 65 57 45 32 21 15 9 1 356 351 345 332 324 322 326 329 329 330 327 318 320 319 318 314 303 300 298 296 294 290 285 284 278 272 270 267 269 268 269 263
132 121 108 102 89 79 57 31 26 26 18 11 6 0 355 349 346 346 337 337 341 343 337 334 332 331 328 317 313 311 307 306 309 312 298 299 288 282 270 265 267 279 286 281
150 137 136 127 105 89 72 42 39 29 25 23 17 14 12 8 357 345 350 351 353 354 347 346 347 346 341 333 331 330 329 329 331 335 328 321 312 295 289 291 297 294 301 292
167 160 155 143 126 120 95 61 48 27 18 18 20 15 12 13 14 12 9 9 6 4 359 357 357 357 354 352 354 353 351 350 352 353 351 350 358 358 338 313 320 313 318 302
173 160 159 159 158 157 158 140 36 18 6 353 354 1 3 12 13 14 17 19 16 11 12 14 12 11 4 6 10 8 8 11 16 18 14 17 22 20 20 14 8 358 1 358